KB6CYS Weather Reports


Display with metric or nautical units.
time (UTC)temp
F
wind
direction
speed
MPH
gust
MPH
rain 1hr
in
rain 24hr
in
rain mn
in
humidity
%
barometer
mb
20220816065523 65 161 1.0 3.0 0.00 0.00 0.00 1010.2
20220816064502 65 206 2.0 4.0 0.00 0.00 0.00 1010.5
20220816064002 65 179 2.0 4.0 0.00 0.00 0.00 1010.9
20220816063502 65 197 2.0 4.0 0.00 0.00 0.00 1010.9
20220816063002 65 211 2.0 5.0 0.00 0.00 0.00 1010.2
20220816062502 66 180 3.0 5.0 0.00 0.00 0.00 1010.2
20220816062002 66 148 2.0 4.0 0.00 0.00 0.00 1010.5
20220816061523 66 182 3.0 4.0 0.00 0.00 0.00 1010.9
20220816061002 66 171 2.0 4.0 0.00 0.00 0.00 1010.5
20220816060523 66 195 1.0 4.0 0.00 0.00 0.00 1010.5
20220816060001 66 194 2.0 5.0 0.00 0.00 0.00 1010.5
20220816055524 66 201 1.0 5.0 0.00 0.00 0.00 1010.2
20220816055002 66 186 2.0 6.0 0.00 0.00 0.00 1010.2
20220816054502 67 195 2.0 6.0 0.00 0.00 0.00 1010.2
20220816054002 67 188 3.0 5.0 0.00 0.00 0.00 1010.2
20220816053502 67 176 2.0 3.0 0.00 0.00 0.00 1009.9
20220816053002 68 100 2.0 3.0 0.00 0.00 0.00 1010.2
20220816052502 67 166 2.0 5.0 0.00 0.00 0.00 1009.9
20220816051524 68 168 2.0 6.0 0.00 0.00 0.00 1009.9
20220816051024 68 169 3.0 5.0 0.00 0.00 0.00 1009.9
20220816050502 68 146 3.0 5.0 0.00 0.00 0.00 1010.9
20220816050002 68 159 2.0 5.0 0.00 0.00 0.00 1009.9
20220816045523 68 160 3.0 7.0 0.00 0.00 0.00 1009.9
20220816044502 68 157 3.0 7.0 0.00 0.00 0.00 1009.9
20220816044023 68 146 3.0 7.0 0.00 0.00 0.00 1009.5
20220816043502 68 132 3.0 7.0 0.00 0.00 0.00 1009.5
20220816043002 69 124 3.0 6.0 0.00 0.00 0.00 1009.2
20220816042523 69 151 2.0 6.0 0.00 0.00 0.00 1009.2
20220816042024 69 111 3.0 5.0 0.00 0.00 0.00 1009.5
20220816041524 69 136 3.0 5.0 0.00 0.00 0.00 1009.5
20220816041024 70 121 2.0 5.0 0.00 0.00 0.00 1009.5
20220816040544 70 174 2.0 5.0 0.00 0.00 0.00 1009.2
20220816040002 70 161 3.0 5.0 0.00 0.00 0.00 1009.5
20220816035524 70 177 3.0 5.0 0.00 0.00 0.00 1008.8
20220816035024 71 180 3.0 5.0 0.00 0.00 0.00 1008.8
20220816034523 71 151 2.0 5.0 0.00 0.00 0.00 1008.8
20220816034023 71 188 3.0 6.0 0.00 0.00 0.00 1008.8
20220816033502 71 175 3.0 6.0 0.00 0.00 0.00 1008.8
20220816033024 71 173 3.0 5.0 0.00 0.00 0.00 1008.5
20220816032544 72 186 3.0 5.0 0.00 0.00 0.00 1008.5
20220816032002 72 162 3.0 6.0 0.00 0.00 0.00 1008.5
20220816031503 73 174 3.0 6.0 0.00 0.00 0.00 1008.5
20220816030502 74 147 2.0 5.0 0.00 0.00 0.00 1008.2
20220816030002 74 141 2.0 5.0 0.00 0.00 0.00 1007.8
20220816025523 75 146 2.0 6.0 0.00 0.00 0.00 1008.2
20220816025002 75 151 3.0 6.0 0.00 0.00 0.00 1008.2
20220816024502 76 155 3.0 5.0 0.00 0.00 0.00 1007.8
20220816024002 76 203 3.0 5.0 0.00 0.00 0.00 1007.5
20220816023544 77 225 2.0 6.0 0.00 0.00 0.00 1007.8
20220816023023 77 263 3.0 6.0 0.00 0.00 0.00 1007.5
20220816022523 77 264 3.0 5.0 0.00 0.00 0.00 1007.8
20220816021502 78 291 3.0 7.0 0.00 0.00 0.00 1007.8
20220816021044 78 233 4.0 6.0 0.00 0.00 0.00 1008.5
20220816020544 78 231 3.0 8.0 0.00 0.00 0.00 1008.2
20220816020044 78 278 4.0 9.0 0.00 0.00 0.00 1008.2
20220816015503 79 282 4.0 9.0 0.00 0.00 0.00 1008.2
20220816015023 80 285 4.0 7.0 0.00 0.00 0.00 1008.2
20220816014523 81 204 3.0 7.0 0.00 0.00 0.00 1007.8
20220816014002 81 219 4.0 7.0 0.00 0.00 0.00 1008.2
20220816013524 81 265 4.0 7.0 0.00 0.00 0.00 1008.2
20220816013002 83 233 3.0 9.0 0.00 0.00 0.00 1008.2
20220816012527 84 187 5.0 10.0 0.00 0.00 0.00 1008.2
20220816012044 84 181 4.0 10.0 0.00 0.00 0.00 1007.8
20220816011502 84 170 6.0 10.0 0.00 0.00 0.00 1007.8
20220816011024 84 175 6.0 10.0 0.00 0.00 0.00 1007.8
20220816010524 85 202 5.0 9.0 0.00 0.00 0.00 1007.5
20220816010002 85 204 4.0 11.0 0.00 0.00 0.00 1007.5
20220816005544 85 178 6.0 11.0 0.00 0.00 0.00 1007.8
20220816005002 85 172 6.0 11.0 0.00 0.00 0.00 1007.8
20220816004503 85 200 5.0 9.0 0.00 0.00 0.00 1007.8
20220816003524 85 176 6.0 12.0 0.00 0.00 0.00 1007.1
20220816003002 86 180 6.0 12.0 0.00 0.00 0.00 1007.5
20220816002503 86 189 6.0 11.0 0.00 0.00 0.00 1007.5
20220816002002 86 190 6.0 11.0 0.00 0.00 0.00 1007.5
20220816001523 86 195 5.0 11.0 0.00 0.00 0.00 1007.5
20220816001002 86 170 6.0 10.0 0.00 0.00 0.00 1007.1
20220816000024 86 168 7.0 13.0 0.00 0.00 0.00 1007.8
20220815235523 86 175 7.0 13.0 0.00 0.00 0.00 1008.2
20220815235045 86 171 6.0 13.0 0.00 0.00 0.00 1007.8
20220815234502 87 179 7.0 13.0 0.00 0.00 0.00 1008.2
20220815234023 87 177 8.0 12.0 0.00 0.00 0.00 1008.2
20220815233023 87 182 5.0 10.0 0.00 0.00 0.00 1008.2
20220815232502 87 193 5.0 10.0 0.00 0.00 0.00 1007.8
20220815231502 87 174 6.0 10.0 0.00 0.00 0.00 1007.8
20220815231003 87 185 5.0 10.0 0.00 0.00 0.00 1007.8
20220815230502 87 177 6.0 11.0 0.00 0.00 0.00 1007.5
20220815225502 86 182 6.0 12.0 0.00 0.00 0.00 1007.5
20220815225002 86 210 5.0 12.0 0.00 0.00 0.00 1008.2
20220815224523 86 182 5.0 11.0 0.00 0.00 0.00 1008.2
20220815224024 85 176 4.0 11.0 0.00 0.00 0.00 1008.2
20220815223545 85 201 5.0 10.0 0.00 0.00 0.00 1008.5
20220815223002 85 197 4.0 10.0 0.00 0.00 0.00 1008.5
20220815222502 85 188 6.0 11.0 0.00 0.00 0.00 1008.2
20220815222044 84 175 6.0 12.0 0.00 0.00 0.00 1008.5
20220815221502 85 176 6.0 12.0 0.00 0.00 0.00 1009.2
20220815221024 85 174 5.0 11.0 0.00 0.00 0.00 1008.5
20220815220545 84 176 7.0 12.0 0.00 0.00 0.00 1009.2
20220815220003 84 170 7.0 12.0 0.00 0.00 0.00 1009.2
20220815215523 84 177 5.0 12.0 0.00 0.00 0.00 1009.2
20220815215002 83 179 7.0 12.0 0.00 0.00 0.00 1009.5
20220815214544 83 167 7.0 12.0 0.00 0.00 0.00 1009.5
20220815214024 82 197 6.0 11.0 0.00 0.00 0.00 1009.5
20220815213524 82 223 5.0 11.0 0.00 0.00 0.00 1009.2
20220815213002 82 204 6.0 10.0 0.00 0.00 0.00 1009.5
20220815212502 82 207 6.0 13.0 0.00 0.00 0.00 1009.2
20220815211002 81 204 6.0 12.0 0.00 0.00 0.00 1009.9
20220815210544 82 188 6.0 12.0 0.00 0.00 0.00 1009.9
20220815205502 82 182 6.0 11.0 0.00 0.00 0.00 1009.9
20220815205044 81 173 6.0 13.0 0.00 0.00 0.00 1009.9
20220815204523 81 176 8.0 13.0 0.00 0.00 0.00 1009.9
20220815204002 81 211 6.0 12.0 0.00 0.00 0.00 1010.2
20220815203524 81 197 7.0 12.0 0.00 0.00 0.00 1009.9
20220815203045 81 200 6.0 12.0 0.00 0.00 0.00 1009.9
20220815202502 81 181 6.0 13.0 0.00 0.00 0.00 1009.9
20220815202003 82 181 6.0 13.0 0.00 0.00 0.00 1010.2
20220815201503 82 187 5.0 10.0 0.00 0.00 0.00 1010.5
20220815201045 81 177 6.0 11.0 0.00 0.00 0.00 1010.2
20220815195523 82 212 6.0 11.0 0.00 0.00 0.00 1010.2
20220815195003 82 189 7.0 11.0 0.00 0.00 0.00 1010.2
20220815194503 82 177 6.0 9.0 0.00 0.00 0.00 1010.2
20220815194002 81 192 5.0 10.0 0.00 0.00 0.00 1010.9
20220815193523 81 227 4.0 10.0 0.00 0.00 0.00 1010.2
20220815193002 81 198 4.0 9.0 0.00 0.00 0.00 1010.2
20220815192545 81 219 5.0 9.0 0.00 0.00 0.00 1010.2
20220815192003 80 176 5.0 11.0 0.00 0.00 0.00 1009.9
20220815191502 79 225 5.0 11.0 0.00 0.00 0.00 1010.2
20220815191023 79 187 4.0 10.0 0.00 0.00 0.00 1010.9
20220815190523 78 247 3.0 10.0 0.00 0.00 0.00 1011.2
20220815190045 79 226 5.0 9.0 0.00 0.00 0.00 1010.9
20220815185545 78 215 5.0 9.0 0.00 0.00 0.00 1011.2
20220815185003 78 222 5.0 9.0 0.00 0.00 0.00 1011.2
20220815184502 78 231 5.0 9.0 0.00 0.00 0.00 1011.2
20220815184002 78 204 4.0 10.0 0.00 0.00 0.00 1011.2
20220815183545 78 231 7.0 10.0 0.00 0.00 0.00 1010.9
20220815183024 79 134 3.0 9.0 0.00 0.00 0.00 1010.9
20220815182502 78 169 5.0 8.0 0.00 0.00 0.00 1011.2
20220815181503 78 149 3.0 9.0 0.00 0.00 0.00 1010.9
20220815181023 78 199 4.0 9.0 0.00 0.00 0.00 1010.9
20220815180524 78 157 5.0 9.0 0.00 0.00 0.00 1010.9
20220815180003 77 181 5.0 9.0 0.00 0.00 0.00 1010.9
20220815175503 77 182 4.0 8.0 0.00 0.00 0.00 1010.5
20220815175002 76 214 4.0 8.0 0.00 0.00 0.00 1010.9
20220815174502 76 153 3.0 7.0 0.00 0.00 0.00 1011.2
20220815173502 76 165 4.0 7.0 0.00 0.00 0.00 1010.9
20220815173003 75 175 4.0 7.0 0.00 0.00 0.00 1010.5
20220815172524 75 166 3.0 7.0 0.00 0.00 0.00 1010.9
20220815172002 75 161 3.0 6.0 0.00 0.00 0.00 1010.9
20220815171502 74 159 3.0 6.0 0.00 0.00 0.00 1010.9
20220815171044 74 179 3.0 7.0 0.00 0.00 0.00 1010.5
20220815170002 73 187 3.0 7.0 0.00 0.00 0.00 1010.9
20220815165523 72 164 4.0 7.0 0.00 0.00 0.00 1011.2
20220815165002 72 219 2.0 6.0 0.00 0.00 0.00 1011.2
20220815164524 72 154 4.0 6.0 0.00 0.00 0.00 1011.2
20220815164024 71 135 2.0 7.0 0.00 0.00 0.00 1010.9
20220815163503 71 197 4.0 8.0 0.00 0.00 0.00 1010.9
20220815163002 71 158 4.0 8.0 0.00 0.00 0.00 1010.9
20220815162523 70 163 5.0 8.0 0.00 0.00 0.00 1010.9
20220815161502 70 200 4.0 7.0 0.00 0.00 0.00 1010.9
20220815161023 69 176 4.0 8.0 0.00 0.00 0.00 1011.2
20220815160502 69 197 4.0 9.0 0.00 0.00 0.00 1011.2
20220815160024 69 178 4.0 9.0 0.00 0.00 0.00 1011.2
20220815155546 68 177 4.0 7.0 0.00 0.00 0.00 1011.2
20220815155024 68 204 5.0 7.0 0.00 0.00 0.00 1010.9
20220815154502 68 205 2.0 7.0 0.00 0.00 0.00 1010.5
20220815154003 67 220 4.0 7.0 0.00 0.00 0.00 1010.9
20220815153503 67 228 4.0 7.0 0.00 0.00 0.00 1010.5
20220815153003 67 174 4.0 7.0 0.00 0.00 0.00 1010.5
20220815152502 66 203 4.0 6.0 0.00 0.00 0.00 1010.9
20220815152003 66 193 3.0 7.0 0.00 0.00 0.00 1010.9
20220815151503 66 197 3.0 7.0 0.00 0.00 0.00 1010.9
20220815151024 66 191 3.0 7.0 0.00 0.00 0.00 1010.5
20220815150502 66 179 4.0 7.0 0.00 0.00 0.00 1010.5
20220815145502 65 189 4.0 6.0 0.00 0.00 0.00 1010.5
20220815145023 65 206 3.0 5.0 0.00 0.00 0.00 1010.9
20220815144002 65 191 2.0 3.0 0.00 0.00 0.00 1010.9
20220815143503 64 196 1.0 3.0 0.00 0.00 0.00 1010.9
20220815143003 64 163 2.0 3.0 0.00 0.00 0.00 1010.5
20220815142502 64 180 2.0 3.0 0.00 0.00 0.00 1010.9
20220815142003 64 182 2.0 3.0 0.00 0.00 0.00 1010.5
20220815141503 64 205 2.0 3.0 0.00 0.00 0.00 1010.5
20220815141002 64 212 2.0 3.0 0.00 0.00 0.00 1010.5
20220815140502 64 225 1.0 3.0 0.00 0.00 0.00 1010.9
20220815140003 64 226 1.0 3.0 0.00 0.00 0.00 1010.5
20220815135524 64 214 2.0 2.0 0.00 0.00 0.00 1010.5
20220815135002 64 220 1.0 2.0 0.00 0.00 0.00 1010.9
20220815134504 63 90 1.0 1.0 0.00 0.00 0.00 1010.9
20220815134024 63 90 0.0 2.0 0.00 0.00 0.00 1010.9
20220815133503 63 90 1.0 2.0 0.00 0.00 0.00 1010.9
20220815133002 63 90 1.0 2.0 0.00 0.00 0.00 1011.2
20220815132503 63 90 1.0 2.0 0.00 0.00 0.00 1010.9
20220815132003 63 180 0.0 1.0 0.00 0.00 0.00 1010.9
20220815131503 63 248 0.0 1.0 0.00 0.00 0.00 1010.5
20220815131023 63 262 1.0 1.0 0.00 0.00 0.00 1011.2
20220815130503 63 180 0.0 1.0 0.00 0.00 0.00 1011.2
20220815130003 63 204 1.0 2.0 0.00 0.00 0.00 1010.9
20220815125003 63 180 0.0 2.0 0.00 0.00 0.00 1011.5
20220815124524 63 199 0.0 2.0 0.00 0.00 0.00 1011.5
20220815124024 63 186 1.0 2.0 0.00 0.00 0.00 1011.5
20220815123502 63 135 0.0 2.0 0.00 0.00 0.00 1011.2
20220815123024 63 162 1.0 2.0 0.00 0.00 0.00 1011.2
20220815122002 63 150 1.0 1.0 0.00 0.00 0.00 1011.2
20220815121525 64 158 1.0 1.0 0.00 0.00 0.00 1011.2
20220815121045 64 158 0.0 1.0 0.00 0.00 0.00 1011.2
20220815120546 64 158 0.0 1.0 0.00 0.00 0.00 1011.2
20220815120024 63 158 0.0 1.0 0.00 0.00 0.00 1010.5
20220815115503 63 135 1.0 2.0 0.00 0.00 0.00 1010.5
20220815115004 64 148 1.0 2.0 0.00 0.00 0.00 1010.5
20220815114502 64 176 1.0 2.0 0.00 0.00 0.00 1010.5
20220815114045 64 143 1.0 2.0 0.00 0.00 0.00 1010.5
20220815113502 64 213 1.0 2.0 0.00 0.00 0.00 1011.2
20220815113003 64 205 1.0 2.0 0.00 0.00 0.00 1010.9
20220815112524 64 215 1.0 2.0 0.00 0.00 0.00 1010.9
20220815112024 64 204 1.0 2.0 0.00 0.00 0.00 1010.9
20220815111502 64 223 1.0 2.0 0.00 0.00 0.00 1011.2
20220815111024 64 222 1.0 2.0 0.00 0.00 0.00 1011.5
20220815110503 64 158 1.0 1.0 0.00 0.00 0.00 1011.2
20220815110002 64 158 1.0 1.0 0.00 0.00 0.00 1011.2
20220815105503 64 158 1.0 1.0 0.00 0.00 0.00 1010.9
20220815105003 64 158 1.0 1.0 0.00 0.00 0.00 1011.5
20220815104545 64 158 0.0 1.0 0.00 0.00 0.00 1011.2
20220815104002 64 158 0.0 1.0 0.00 0.00 0.00 1011.5
20220815103503 64 158 0.0 0.0 0.00 0.00 0.00 1011.5
20220815103045 64 158 0.0 1.0 0.00 0.00 0.00 1011.2
20220815102545 64 158 0.0 1.0 0.00 0.00 0.00 1011.2
20220815102045 64 158 1.0 1.0 0.00 0.00 0.00 1011.2
20220815101503 64 158 1.0 1.0 0.00 0.00 0.00 1011.2
20220815101045 64 158 0.0 0.0 0.00 0.00 0.00 1011.5
20220815100503 65 158 0.0 1.0 0.00 0.00 0.00 1011.5
20220815100003 65 158 0.0 1.0 0.00 0.00 0.00 1011.5
20220815095503 65 158 0.0 1.0 0.00 0.00 0.00 1011.2
20220815095003 65 202 1.0 1.0 0.00 0.00 0.00 1011.5
20220815094503 65 203 0.0 1.0 0.00 0.00 0.00 1011.9
20220815094002 65 202 0.0 2.0 0.00 0.00 0.00 1011.9
20220815093524 65 204 1.0 2.0 0.00 0.00 0.00 1011.5
20220815093047 65 234 1.0 2.0 0.00 0.00 0.00 1011.5
20220815092503 65 215 1.0 2.0 0.00 0.00 0.00 1011.2
20220815092023 65 212 1.0 2.0 0.00 0.00 0.00 1011.5
20220815091524 65 158 0.0 2.0 0.00 0.00 0.00 1011.2
20220815091003 65 134 1.0 2.0 0.00 0.00 0.00 1011.5
20220815090045 65 115 1.0 2.0 0.00 0.00 0.00 1011.5
20220815085503 65 114 1.0 2.0 0.00 0.00 0.00 1011.9
20220815085024 65 176 1.0 2.0 0.00 0.00 0.00 1011.5
20220815084503 65 186 1.0 2.0 0.00 0.00 0.00 1011.9
20220815084003 65 202 1.0 3.0 0.00 0.00 0.00 1011.9
20220815083502 65 182 2.0 3.0 0.00 0.00 0.00 1011.9
20220815083003 65 191 2.0 3.0 0.00 0.00 0.00 1011.5
20220815082503 65 181 2.0 4.0 0.00 0.00 0.00 1011.9
20220815081503 65 206 1.0 4.0 0.00 0.00 0.00 1011.9
20220815080524 66 186 2.0 3.0 0.00 0.00 0.00 1011.9
20220815080024 65 196 1.0 3.0 0.00 0.00 0.00 1012.2
20220815075503 66 206 2.0 4.0 0.00 0.00 0.00 1012.2
20220815074524 66 180 1.0 3.0 0.00 0.00 0.00 1012.2
20220815074003 66 180 2.0 4.0 0.00 0.00 0.00 1012.6
20220815073545 66 177 2.0 4.0 0.00 0.00 0.00 1012.2
20220815073045 66 171 1.0 4.0 0.00 0.00 0.00 1012.2
20220815072503 66 175 2.0 3.0 0.00 0.00 0.00 1012.2
20220815072003 66 106 1.0 3.0 0.00 0.00 0.00 1011.9
20220815071503 66 165 2.0 3.0 0.00 0.00 0.00 1011.9
20220815071003 67 170 2.0 3.0 0.00 0.00 0.00 1012.2
20220815070502 67 174 2.0 3.0 0.00 0.00 0.00 1012.2
20220815070024 67 132 2.0 5.0 0.00 0.00 0.00 1011.9